This demonstration page uses our WeatherBlox Daily Observations layout. Learn more.

Left ArrowRight Arrow

39.92423, -83.80882

Hourly Observations for August 26, 2020

Temp ( °F °C ) Dew Point ( °F °C ) Humidity (%) Winds ( mph kmh ) Pressure ( in mb ) Visibility ( mi km ) Precip ( " mm )
12:56 am 00:56 Mostly Clear 68 20 68 20 100 100 SSE 3 6 30.08 1019 10 16 N/A
1:56 am 01:56 Mostly Cloudy 68 20 68 20 100 100 N N/A 30.07 1018 10 16 N/A
2:56 am 02:56 Mostly Clear 67 19.4 67 19.4 100 100 N N/A 30.06 1018 10 16 N/A
3:56 am 03:56 Clear 66 18.9 66 18.9 100 100 SSW 5 7 30.05 1018 10 16 N/A
4:56 am 04:56 Clear 64 17.8 64 17.8 100 100 E 3 6 30.05 1018 9 14 N/A
5:56 am 05:56 Clear with Mist and Fog 64 17.8 64 17.8 100 100 SE 3 6 30.06 1018 5 8 N/A
6:56 am 06:56 Partly Cloudy with Mist and Fog 66 18.9 66 18.9 100 100 N N/A 30.07 1018 4 6 N/A
7:56 am 07:56 Sunny with Mist and Fog 69 20.6 69 20.6 100 100 SW 3 6 30.07 1018 4 6 N/A
8:56 am 08:56 Sunny 73 22.8 73 22.8 100 100 N N/A 30.07 1018 8 13 N/A
9:56 am 09:56 Sunny 77 25 76 24.4 96 96 WSW 5 7 30.08 1019 9 14 N/A
10:56 am 10:56 Sunny 83 28.3 75 23.9 77 77 WNW 7 11 30.08 1019 10 16 N/A
11:56 am 11:56 Sunny 84 28.9 75 23.9 74 74 VRB 6 9 30.08 1019 10 16 N/A
12:10 pm 12:10 Hazy 84 29 75 24 74 74 W 7 11 30.04 1017 1 2 N/A
12:20 pm 12:20 Mostly Sunny 84 29 75 24 74 74 W 7 11 30.04 1017 8 13 N/A
12:56 pm 12:56 Partly Cloudy 87 30.6 75 23.9 67 67 WSW 9 15 30.07 1018 10 16 N/A
1:56 pm 13:56 Mostly Sunny 88 31.1 73 22.8 61 61 W 10 17 30.05 1018 10 16 N/A
2:56 pm 14:56 Sunny 88 31.1 73 22.8 61 61 W 9 15 30.03 1017 10 16 N/A
3:56 pm 15:56 Mostly Sunny 89 31.7 72 22.2 57 57 W 9 15 30.01 1016 10 16 N/A
4:56 pm 16:56 Partly Cloudy 88 31.1 72 22.2 59 59 WSW 12 19 30.00 1016 10 16 N/A
5:56 pm 17:56 Sunny 87 30.6 71 21.7 59 59 WSW 7 11 29.99 1016 10 16 N/A
6:56 pm 18:56 Sunny 84 28.9 71 21.7 65 65 WSW 5 7 29.98 1015 10 16 N/A
7:56 pm 19:56 Sunny 79 26.1 73 22.8 82 82 WSW 3 6 29.98 1015 10 16 N/A
8:56 pm 20:56 Clear 75 23.9 73 22.8 94 94 SW 5 7 29.98 1015 10 16 N/A
9:56 pm 21:56 Clear 75 23.9 73 22.8 94 94 S 3 6 29.99 1016 10 16 N/A
10:56 pm 22:56 Clear 73 22.8 73 22.8 100 100 SSW 3 6 29.98 1015 10 16 N/A
11:56 pm 23:56 Clear 72 22.2 72 22.2 100 100 SW 3 6 29.98 1015 10 16 N/A

Powered by AerisWeather